This demonstration page uses our WeatherBlox Daily Observations layout. Learn more.

Left ArrowRight Arrow

Hourly Observations for May 20, 2015

Temp ( °F °C ) Dew Point ( °F °C ) Humidity (%) Winds ( mph kmh ) Pressure ( in mb ) Visibility ( mi km ) Precip ( " mm )
12:53 am 00:53 Clear 71 21.7 61 16.1 71 71 SE 10 17 29.77 1008 10 16 0.00 0.00
1:53 am 01:53 Clear 68 20 62 16.7 81 81 E 7 11 29.77 1008 9 14 0.00 0.00
2:53 am 02:53 Mostly Clear 68 20 62 16.7 81 81 ENE 5 7 29.76 1008 10 16 0.00 0.00
3:53 am 03:53 Clear 66 18.9 62 16.7 87 87 NNE 3 6 29.75 1008 7 11 0.00 0.00
4:53 am 04:53 Clear with Mist and Fog 67 19.4 63 17.2 87 87 ENE 3 6 29.75 1008 5 8 0.00 0.00
5:53 am 05:53 Clear with Mist and Fog 66 18.9 63 17.2 90 90 ENE 3 6 29.78 1008 4 6 0.00 0.00
6:53 am 06:53 Sunny with Mist and Fog 66 18.9 63 17.2 90 90 E 3 6 29.80 1009 4 6 0.00 0.00
7:06 am 07:06 Sunny with Mist and Fog 66 19 63 17 88 88 E 3 6 29.83 1010 3 4 0.00 0.00
7:38 am 07:38 Sunny with Mist and Fog 66 19 64 18 94 94 Calm 29.83 1010 3 5 0.00 0.00
7:53 am 07:53 Partly Cloudy with Mist and Fog 68 20 65 18.3 90 90 Calm 29.83 1010 3 5 0.00 0.00
8:14 am 08:14 Cloudy with Haze 70 21 64 18 83 83 N 7 11 29.85 1011 5 8 0.00 0.00
8:28 am 08:28 Cloudy with Mist and Fog 70 21 64 18 83 83 N 6 9 29.85 1011 5 8 0.00 0.00
8:53 am 08:53 Cloudy 73 22.8 66 18.9 79 79 NE 7 11 29.86 1011 8 13 0.00 0.00
9:53 am 09:53 Partly Cloudy 76 24.4 66 18.9 72 72 E 7 11 29.88 1012 10 16 0.00 0.00
10:30 am 10:30 Mostly Cloudy 79 26 64 18 61 61 ENE 5 7 29.83 1010 10 16 0.00 0.00
10:45 am 10:45 Mostly Sunny 79 26.1 65 18.3 62 62 NE 7 11 29.83 1010 10 16 0.00 0.00
10:53 am 10:53 Partly Cloudy 79 26.1 64 17.8 60 60 N 9 15 29.89 1012 10 16 0.00 0.00
11:15 am 11:15 Mostly Cloudy 76 24.4 62 16.7 62 62 N 21 33 29.88 1012 10 16 0.00 0.00
11:22 am 11:22 Cloudy 75 24 61 16 61 61 N 21 33 29.88 1012 10 16 0.00 0.00
11:53 am 11:53 Mostly Sunny 76 24.4 60 15.6 58 58 N 25 41 29.92 1013 10 16 0.00 0.00
12:53 pm 12:53 Partly Cloudy 75 23.9 59 15 58 58 NNE 21 33 29.94 1014 10 16 0.00 0.00
1:27 pm 13:27 Mostly Cloudy 75 24 59 15 57 57 NNE 21 33 29.91 1013 10 16 0.00 0.00
1:36 pm 13:36 Partly Cloudy 75 24 59 15 57 57 NNE 18 30 29.91 1013 10 16 0.00 0.00
1:53 pm 13:53 Partly Cloudy 76 24.4 59 15 56 56 NNE 18 30 29.94 1014 10 16 0.00 0.00
2:53 pm 14:53 Mostly Sunny 77 25 58 14.4 52 52 NNE 20 31 29.93 1013 10 16 0.00 0.00
3:40 pm 15:40 Mostly Cloudy 75 24 55 13 50 50 NE 20 31 29.91 1013 10 16 0.00 0.00
3:53 pm 15:53 Mostly Cloudy 75 23.9 56 13.3 52 52 NE 17 28 29.94 1014 10 16 0.00 0.00
4:28 pm 16:28 Partly Cloudy 73 23 55 13 53 53 NNE 18 30 29.88 1012 10 16 0.00 0.00
4:53 pm 16:53 Sunny 75 23.9 56 13.3 52 52 NE 20 31 29.92 1013 10 16 0.00 0.00
5:30 pm 17:30 Cloudy 72 22 55 13 57 57 ENE 21 33 29.91 1013 10 16 0.00 0.00
5:53 pm 17:53 Cloudy 71 21.7 55 12.8 57 57 ENE 17 28 29.92 1013 10 16 0.00 0.00
6:53 pm 18:53 Cloudy 69 20.6 54 12.2 59 59 NE 18 30 29.93 1013 10 16 0.00 0.00
7:53 pm 19:53 Cloudy 65 18.3 53 11.7 66 66 ENE 16 26 29.96 1014 10 16 0.00 0.00
8:53 pm 20:53 Cloudy 63 17.2 52 11.1 68 68 NE 13 20 29.98 1015 10 16 0.00 0.00
9:53 pm 21:53 Cloudy 61 16.1 52 11.1 72 72 NE 15 24 29.99 1016 10 16 0.00 0.00
10:30 pm 22:30 Cloudy 61 16 52 11 72 72 ENE 12 19 30.06 1018 10 16 0.00 0.00
10:53 pm 22:53 Cloudy 60 15.6 52 11.1 75 75 ENE 10 17 30.03 1017 10 16 0.00 0.00
11:53 pm 23:53 Cloudy with Light Rain 59 15 52 11.1 78 78 ENE 14 22 30.04 1017 10 16 0.00 0.03

Powered by AerisWeather